Twin Falls, ID

5:36 AM MDT on March 27, 2017 (GMT -0600)
Joslin Field-Magic Valley Regional

Weather History for KTWF - March, 2014

Change the Weather History Date:

Monday, March 10, 2014

  Actual Average Record
Temperature  
Mean Temperature 46 °F -  
Max Temperature 56 °F 51 °F 72 °F (2015)
Min Temperature 35 °F 29 °F 17 °F (2006)
Degree Days  
Heating Degree Days 19 25  
Month to date heating degree days 171 262  
Since 1 July heating degree days 4424 4829  
Cooling Degree Days 0 0  
Month to date cooling degree days 0 0  
Year to date cooling degree days 0 0  
Moisture  
Dew Point 35 °F    
Average Humidity 64    
Maximum Humidity 89    
Minimum Humidity 38    
Precipitation  
Precipitation 0.14 in 0.03 in 0.14 in (2014)
Month to date precipitation 1.01 0.23  
Year to date precipitation 3.25 2.02  
Sea Level Pressure  
Sea Level Pressure 29.94 in    
Wind  
Wind Speed 18 mph (WSW)    
Max Wind Speed 37 mph    
Max Gust Speed 45 mph    
Visibility 8 miles    
Events Rain , Snow    
T = Trace of Precipitation, MM = Missing Value Source: NWS Daily Summary

Daily Weather History Graph

Daily Weather History Graph

Search for Another Location

Airport or City:

Trip Planner

Search our weather history database for the weather conditions in past years. The results will help you decide how hot, cold, wet, or windy it might be!

Date:

Astronomy

Mar. 10, 2014 Rise Set
Actual Time 7:58 AM MDT 7:38 PM MDT
Civil Twilight 7:30 AM MDT 8:06 PM MDT
Nautical Twilight 6:57 AM MDT 8:39 PM MDT
Astronomical Twilight 6:24 AM MDT 9:12 PM MDT
Moon 2:21 PM MDT (3/10) 4:18 AM MDT (3/10)
Length of Visible Light 12h 36m
Length of Day
11h 40m
Waxing Gibbous, 70% of the Moon is Illuminated
Mar 10
Waxing Gibbous
Mar 16
Full
Mar 23
Last Quarter
Mar 30
New
Apr 7
First Quarter

Hourly Weather History & Observations

Time (MDT) Temp. Windchill Dew Point Humidity Pressure Visibility Wind Dir Wind Speed Gust Speed Precip Events Conditions
12:53 AM 50.0 °F - 41.0 °F 71% 29.95 in 10.0 mi SSE 8.1 mph - N/A   Overcast
1:53 AM 48.9 °F - 41.0 °F 74% 29.92 in 10.0 mi SE 5.8 mph - N/A   Overcast
2:53 AM 50.0 °F - 37.9 °F 63% 29.90 in 10.0 mi South 5.8 mph - N/A   Overcast
3:53 AM 50.0 °F - 37.0 °F 61% 29.85 in 10.0 mi Calm Calm - N/A   Mostly Cloudy
4:53 AM 54.0 °F - 33.1 °F 45% 29.81 in 10.0 mi South 16.1 mph - N/A   Overcast
5:53 AM 54.0 °F - 32.0 °F 43% 29.79 in 10.0 mi South 15.0 mph - N/A   Overcast
6:53 AM 54.0 °F - 28.9 °F 38% 29.78 in 10.0 mi South 16.1 mph - N/A   Overcast
7:53 AM 51.1 °F - 32.0 °F 48% 29.81 in 10.0 mi SW 13.8 mph - N/A   Overcast
8:53 AM 51.1 °F - 35.1 °F 54% 29.82 in 10.0 mi West 15.0 mph - N/A   Overcast
9:53 AM 50.0 °F - 36.0 °F 59% 29.85 in 8.0 mi WNW 15.0 mph - 0.01 in Rain Light Rain
10:06 AM 48.0 °F - 37.9 °F 68% 29.92 in 7.0 mi West 15.0 mph - 0.00 in Rain Light Rain
10:53 AM 46.0 °F 41.9 °F 39.9 °F 79% 29.86 in 9.0 mi NW 8.1 mph - 0.01 in Rain Light Rain
11:53 AM 48.0 °F - 39.0 °F 71% 29.85 in 8.0 mi West 16.1 mph - 0.01 in Rain Light Rain
12:49 PM 44.6 °F 36.1 °F 37.4 °F 76% 29.93 in 10.0 mi WSW 21.9 mph 26.5 mph 0.01 in Rain Light Rain
12:53 PM 45.0 °F 37.1 °F 37.9 °F 76% 29.87 in 10.0 mi WSW 19.6 mph 26.5 mph 0.01 in Rain Light Rain
1:02 PM 43.0 °F 35.4 °F 39.0 °F 86% 29.93 in 10.0 mi West 16.1 mph - 0.00 in Rain Light Rain
1:29 PM 44.1 °F 35.7 °F 39.0 °F 82% 29.93 in 10.0 mi West 20.7 mph - 0.00 in Rain Light Rain
1:53 PM 43.0 °F 35.1 °F 39.0 °F 86% 29.87 in 10.0 mi West 17.3 mph - 0.00 in Rain Light Rain
2:53 PM 41.0 °F 31.1 °F 37.0 °F 86% 29.86 in 10.0 mi West 23.0 mph 28.8 mph 0.03 in Rain Light Rain
3:53 PM 39.0 °F 27.4 °F 35.1 °F 86% 29.90 in 5.0 mi West 28.8 mph 33.4 mph 0.03 in Rain Light Rain
4:01 PM 39.0 °F 28.0 °F 35.1 °F 86% 29.95 in 5.0 mi West 25.3 mph 35.7 mph 0.00 in Rain Light Rain
4:43 PM 39.9 °F 28.2 °F 36.0 °F 86% 29.96 in 10.0 mi West 31.1 mph 36.8 mph 0.01 in Rain Light Rain
4:53 PM 41.0 °F 30.0 °F 36.0 °F 82% 29.89 in 10.0 mi West 28.8 mph 39.1 mph 0.01 in Rain Light Rain
5:42 PM 41.0 °F 29.5 °F 34.0 °F 76% 29.96 in 10.0 mi WSW 32.2 mph 39.1 mph 0.00 in   Scattered Clouds
5:53 PM 39.9 °F 27.6 °F 34.0 °F 79% 29.90 in 10.0 mi WSW 34.5 mph 43.7 mph 0.00 in   Scattered Clouds
6:53 PM 42.1 °F 31.3 °F 34.0 °F 73% 29.91 in 10.0 mi WSW 29.9 mph 42.6 mph N/A   Clear
7:53 PM 39.9 °F 30.2 °F 32.0 °F 73% 29.96 in 10.0 mi WSW 20.7 mph 29.9 mph N/A   Partly Cloudy
8:53 PM 37.0 °F 26.7 °F 30.0 °F 76% 30.01 in 10.0 mi SW 19.6 mph - N/A   Clear
9:42 PM 37.0 °F 24.3 °F 30.9 °F 79% 30.08 in 2.5 mi West 31.1 mph 38.0 mph 0.03 in Rain Heavy Rain
9:45 PM 35.1 °F 21.8 °F 30.9 °F 85% 30.09 in 1.5 mi West 29.9 mph 40.3 mph 0.03 in Snow Light Snow
9:53 PM 35.1 °F 22.2 °F 30.9 °F 85% 30.05 in 1.0 mi West 27.6 mph 40.3 mph 0.03 in Snow Light Snow
10:00 PM 35.1 °F 21.8 °F 30.9 °F 85% 30.09 in 2.0 mi West 29.9 mph 36.8 mph 0.00 in Snow Light Snow
10:08 PM 35.1 °F 23.3 °F 30.9 °F 85% 30.09 in 1.8 mi West 23.0 mph 36.8 mph 0.00 in Snow Light Snow
10:12 PM 35.1 °F 24.5 °F 32.0 °F 89% 30.09 in 2.5 mi West 18.4 mph 32.2 mph 0.00 in Snow Light Snow
10:19 PM 35.1 °F 24.5 °F 32.0 °F 89% 30.09 in 7.0 mi West 18.4 mph - 0.00 in Snow Light Snow
10:53 PM 36.0 °F 25.0 °F 30.9 °F 82% 30.06 in 10.0 mi WSW 20.7 mph - 0.00 in   Scattered Clouds
11:53 PM 36.0 °F 25.3 °F 30.0 °F 79% 30.07 in 10.0 mi WSW 19.6 mph 28.8 mph N/A   Clear